This is the latest recevied weather packets stored in our database for station/object WB3EGK. If no packets are shown the sender has not sent any weather packets the latest 10 day(s).
| Time | Temp. | Humidity | Pressure | Rain* | Wind** | Luminosity | Snow |
|---|---|---|---|---|---|---|---|
| 1778171629 | 13.33° C | 1% | 1009.1 hPa | 0 mm | - | 991 W/m² | - |
| 1778171325 | 12.78° C | 1% | 1009.3 hPa | 0 mm | - | 972 W/m² | - |
| 1778171021 | 12.22° C | 1% | 1009.1 hPa | 0 mm | - | 262 W/m² | - |
| 1778170718 | 11.67° C | 1% | 1009.4 hPa | 0 mm | - | 913 W/m² | - |
| 1778170415 | 11.67° C | 1% | 1009.4 hPa | 0 mm | - | 271 W/m² | - |
| 1778170111 | 11.67° C | 1% | 1009.4 hPa | 0 mm | - | 252 W/m² | - |
| 1778169807 | 11.11° C | 1% | 1009.6 hPa | 0 mm | - | 750 W/m² | - |
| 1778169503 | 11.11° C | 1% | 1009.4 hPa | 0 mm | - | 243 W/m² | - |
| 1778169200 | 12.22° C | 1% | 1009.4 hPa | 0 mm | - | 288 W/m² | - |
| 1778168896 | 11.67° C | 1% | 1009.6 hPa | 0 mm | - | 855 W/m² | - |
| 1778168594 | 11.67° C | 1% | 1009.3 hPa | 0 mm | - | 811 W/m² | - |
| 1778168290 | 12.22° C | 1% | 1009.6 hPa | 0 mm | - | 368 W/m² | - |
| 1778167987 | 11.67° C | 1% | 1009.6 hPa | 0 mm | - | 944 W/m² | - |
| 1778167683 | 11.67° C | 1% | 1009.6 hPa | 0 mm | - | 919 W/m² | - |
| 1778167380 | 11.67° C | 1% | 1009.9 hPa | 0 mm | - | 301 W/m² | - |
| 1778167075 | 11.11° C | 1% | 1009.9 hPa | 0 mm | - | 943 W/m² | - |
| 1778166772 | 11.67° C | 1% | 1009.8 hPa | 0 mm | - | 285 W/m² | - |
| 1778166469 | 11.67° C | 1% | 1009.8 hPa | 0 mm | - | 1047 W/m² | - |
| 1778166166 | 11.11° C | 1% | 1010 hPa | 0 mm | - | 920 W/m² | - |
| 1778165862 | 11.11° C | 1% | 1010 hPa | 0 mm | - | 200 W/m² | - |
| 1778165558 | 11.67° C | 1% | 1010 hPa | 0 mm | - | 910 W/m² | - |
| 1778165256 | 11.67° C | 1% | 1009.9 hPa | 0 mm | - | 832 W/m² | - |
| 1778164953 | 12.22° C | 1% | 1009.9 hPa | 0 mm | - | 839 W/m² | - |
| 1778164649 | 11.67° C | 1% | 1010 hPa | 0 mm | - | 586 W/m² | - |
| 1778164347 | 10.56° C | 1% | 1010.1 hPa | 0 mm | - | 795 W/m² | - |
* Rain latest hour (hover to see other rain measurements)
** Current wind speed in m/s (hover to see current wind gust speed)